[[{"header":{"parameterUnit":"m.s-1","parameterCategory":1,"la1":30.2991,"la2":30.254,"lo1":-89.0895,"lo2":-89.0444,"dy":0.0017,"dx":0.0017,"nx":28,"ny":28,"refTime":"2023-08-09T21:00:00:Z","depth":0,"parameterNumber":2,"parameterNumberName":"U-component_of_WINDS"},"data":[0,0,0,0,0,0,0,0,0,0,0,0,0,0,0,0,0,0,0,0,0,0,0,0,0,0,0,0,0,0,0,0,0,0,0,0,0,0,0,0,0,0,0,0,0,0,0,0,0,0,0,0,0,0,0,0,0,0,2.1116,2.1117,0,2.1205,2.1206,2.1207,2.1174,2.1172,2.117,2.1168,2.1268,2.1273,2.1277,0,0,0,0,0,0,0,0,0,0,0,0,0,2.0927,2.0931,2.1116,2.1117,2.1118,2.1204,2.1206,2.1207,2.1175,2.1172,2.117,2.1168,2.1267,2.1272,2.1277,0,0,0,0,0,0,0,0,0,0,0,0,0,2.1012,2.0932,2.1115,2.1112,2.1113,2.1204,2.1206,2.1207,2.1175,2.1172,2.1169,2.1166,2.1265,2.1271,2.1278,2.1381,0,0,2.1299,2.1302,0,0,0,0,0,0,0,0,2.1007,2.1019,2.1111,2.1112,2.1113,2.1175,2.1176,2.1266,2.1176,2.1152,2.1168,2.1165,2.124,2.1249,2.1273,2.1386,2.139,2.13,2.1304,2.1307,2.1309,0,0,0,0,0,0,0,2.1001,2.1015,2.1151,2.1113,2.1114,2.1109,2.1118,2.1193,2.1212,2.1154,2.1151,2.1162,2.124,2.1266,2.1275,2.1392,2.1299,2.1305,2.131,2.1312,2.1597,2.16,0,0,0,0,0,0,2.0994,2.101,2.1148,2.1154,2.1051,2.1115,2.1125,2.1159,2.1211,2.1216,2.1165,2.116,2.1256,2.1267,2.1278,2.1404,2.1307,2.1313,2.1317,2.1594,2.1598,2.1602,0,0,0,0,0,0,2.099,2.1006,2.1145,2.1081,2.1099,2.1121,2.116,2.1162,2.1187,2.1219,2.1224,2.1187,2.1254,2.1268,2.1356,2.1407,2.1316,2.1322,2.159,2.1595,2.16,2.1655,0,0,0,0,0,0,2.0985,2.1005,2.1042,2.1082,2.1102,2.1218,2.1163,2.1166,2.1198,2.1194,2.1241,2.1246,2.1253,2.1346,2.1363,2.1415,2.1328,2.1585,2.1592,2.1598,2.1649,2.1662,2.1672,0,0,0,0,0,2.0978,2.1055,2.1044,2.1061,2.1148,2.1221,2.1233,2.1236,2.1202,2.1242,2.1263,2.1245,2.1398,2.1355,2.1374,2.1428,2.1582,2.159,2.1598,2.1644,2.1659,2.1672,0,0,0,0,0,0,2.1023,2.1061,2.1048,2.1141,2.1178,2.1215,2.1265,2.1252,2.1301,2.1295,2.1299,2.1311,2.1401,2.1423,2.1374,2.1532,2.1486,2.1498,2.1514,2.1529,2.1541,2.1534,2.1333,0,0,0,0,0,2.1043,2.1096,2.1127,2.1206,2.1225,2.1242,2.1274,2.1273,2.1312,2.1329,2.1356,2.1398,2.1455,2.1493,2.1548,2.1652,2.1664,2.1699,2.1711,2.172,2.1731,2.179,2.1807,2.1627,2.1627,2.1627,0,0,2.1086,2.1113,2.1147,2.1216,2.1244,2.1302,2.1255,2.1318,2.1362,2.1339,2.1423,2.1445,2.1492,2.1588,2.1632,2.161,2.1783,2.173,2.1738,2.1743,2.18,2.1817,2.1832,2.1633,2.1632,2.1631,0,0,2.1195,2.1219,2.1288,2.1318,2.1361,2.1372,2.1389,2.1429,2.1442,2.1525,2.151,2.1564,2.1663,2.1697,2.1728,2.1852,2.1839,2.187,2.1932,2.199,2.2004,2.2016,2.2063,2.2079,2.188,2.188,2.188,0,2.1244,2.1327,2.1326,2.1391,2.1423,2.1402,2.1474,2.1504,2.1564,2.1588,2.1562,2.1686,2.1716,2.1822,2.1852,2.1877,2.1899,2.1865,2.2001,2.2014,2.2026,2.207,2.2087,2.1884,2.1884,2.1883,2.1883,0,2.1387,2.1446,2.1497,2.1553,2.1591,2.1659,2.1671,2.171,2.1707,2.1722,2.1809,2.1844,2.1907,2.1932,2.193,2.2038,2.2023,2.1999,2.1952,2.2047,2.2088,2.2105,2.1889,2.1888,2.1887,2.1886,0,0,2.1525,2.1581,2.16,2.1626,2.1673,2.172,2.1789,2.1847,2.1882,2.1925,2.1985,2.2069,2.2048,2.2083,2.2085,2.2135,2.2234,2.2105,2.2106,2.2129,2.2358,2.2377,2.2396,2.2225,2.2228,2.223,2.2355,0,2.1639,2.1756,2.1758,2.1868,2.1924,2.1906,2.1967,2.2004,2.202,2.2073,2.2092,2.2152,2.2118,2.2139,2.2188,2.2211,2.228,2.2202,2.2284,2.2286,2.2273,2.2418,2.2438,2.2553,2.2371,2.2374,2.2376,0,2.1787,2.1832,2.1946,2.1987,2.2011,2.2065,2.212,2.2169,2.2213,2.2221,2.2261,2.2255,2.2329,2.2279,2.2383,2.233,2.2364,2.238,2.2385,2.2394,2.2337,2.2433,2.259,2.2608,2.2401,2.2399,2.2397,0,2.1879,2.1969,2.2049,2.2072,2.2121,2.216,2.2183,2.2223,2.2259,2.2308,2.2332,2.239,2.2423,2.247,2.2482,2.2444,2.2586,2.2537,2.2598,2.2598,2.263,2.2628,2.2797,2.2649,2.2649,2.2649,2.2648,0,2.2006,2.2077,2.2092,2.2141,2.2222,2.2225,2.2306,2.2326,2.2362,2.2418,2.2407,2.246,2.2472,2.2529,2.2539,2.2625,2.2639,2.2651,2.2653,2.2652,2.2651,2.2675,2.2668,2.2653,2.2652,2.2651,2.2651,0,2.2123,2.2135,2.2222,2.2261,2.2273,2.233,2.2365,2.2415,2.243,2.2501,2.2518,2.2543,2.2609,2.2625,2.2705,2.2712,2.2814,2.2808,2.2799,2.2799,2.286,2.2854,2.3051,2.3078,2.2912,2.2913,2.2915,0,2.2203,2.2257,2.2302,2.2338,2.2362,2.2419,2.2455,2.2462,2.2501,2.2555,2.2599,2.2664,2.2715,2.2823,2.285,2.2912,2.2908,2.2973,2.2918,2.2916,2.2911,2.2908,2.2915,2.2984,2.2986,2.2987,2.2988,0,2.2346,2.235,2.2401,2.2456,2.2499,2.2543,2.2585,2.2615,2.2628,2.2673,2.2739,2.2779,2.286,2.2926,2.2988,2.3015,2.3006,2.3005,2.3023,2.3024,2.3017,2.3023,2.2829,2.3001,2.3,2.2999,2.2998,2.2998,2.2449,2.2497,2.2536,2.2595,2.2626,2.2666,2.2715,2.2736,2.279,2.2855,2.2856,2.293,2.2975,2.3057,2.3087,2.3147,2.3127,2.3153,2.316,2.3166,2.3172,2.3006,2.3158,2.3158,2.3158,2.3157,2.3157,0,2.2592,2.2617,2.267,2.2729,2.2776,2.276,2.2806,2.2847,2.2911,2.2952,2.3003,2.3081,2.3145,2.3177,2.3241,2.3283,2.328,2.33,2.3298,2.3304,2.3185,2.3164,2.3301,2.3301,2.3301,2.3301,2.3301,2.3301,2.2673,2.2754,2.2762,2.2861,2.2886,2.2955,2.2983,2.3021,2.3054,2.3141,2.3193,2.3213,2.3252,2.3319,2.3378,2.3386,2.3411,2.3433,2.3439,2.3327,2.3313,2.3299,2.3279,2.3438,2.3438,2.3554,2.3555,2.3556]},{"header":{"parameterUnit":"m.s-1","parameterCategory":1,"la1":30.2991,"la2":30.254,"lo1":-89.0895,"lo2":-89.0444,"dy":0.0017,"dx":0.0017,"nx":28,"ny":28,"refTime":"2023-08-09T21:00:00:Z","depth":0,"parameterNumber":3,"parameterNumberName":"V-component_of_WINDS"},"data":[0,0,0,0,0,0,0,0,0,0,0,0,0,0,0,0,0,0,0,0,0,0,0,0,0,0,0,0,0,0,0,0,0,0,0,0,0,0,0,0,0,0,0,0,0,0,0,0,0,0,0,0,0,0,0,0,0,0,2.4199,2.42,0,2.4337,2.4338,2.434,2.4324,2.4322,2.432,2.4318,2.4457,2.4463,2.4468,0,0,0,0,0,0,0,0,0,0,0,0,0,2.3917,2.3922,2.4199,2.4201,2.4202,2.4336,2.4338,2.434,2.4324,2.4322,2.4319,2.4317,2.4455,2.4462,2.4469,0,0,0,0,0,0,0,0,0,0,0,0,0,2.4045,2.3924,2.4198,2.4211,2.4213,2.4336,2.4338,2.4341,2.4325,2.4322,2.4318,2.4315,2.4453,2.4461,2.447,2.4589,0,0,2.4496,2.45,0,0,0,0,0,0,0,0,2.4038,2.4056,2.4207,2.421,2.4213,2.431,2.429,2.4424,2.4326,2.4282,2.4317,2.4314,2.4411,2.4422,2.4455,2.4595,2.4601,2.4497,2.4502,2.4506,2.4508,0,0,0,0,0,0,0,2.4029,2.405,2.4253,2.4209,2.4213,2.4207,2.4222,2.4315,2.4363,2.4286,2.4285,2.4302,2.4411,2.4447,2.4459,2.4603,2.4497,2.4504,2.451,2.4513,2.4839,2.4843,0,0,0,0,0,0,2.4018,2.4042,2.4249,2.4257,2.4116,2.4215,2.4231,2.4282,2.4362,2.4371,2.4304,2.43,2.4434,2.4449,2.4463,2.4602,2.4506,2.4514,2.4519,2.4836,2.484,2.4844,0,0,0,0,0,0,2.4012,2.4036,2.4243,2.415,2.4176,2.4223,2.428,2.4286,2.4322,2.4376,2.4384,2.4332,2.4432,2.4451,2.4556,2.4607,2.4518,2.4526,2.4832,2.4837,2.4842,2.4885,0,0,0,0,0,0,2.4004,2.4034,2.4082,2.4151,2.4181,2.4336,2.4284,2.4292,2.4337,2.4333,2.4404,2.4413,2.4431,2.4543,2.4565,2.4617,2.4532,2.4827,2.4834,2.484,2.4879,2.4891,2.4901,0,0,0,0,0,2.3994,2.409,2.4084,2.4109,2.4241,2.4339,2.4356,2.4375,2.4342,2.4388,2.4421,2.4411,2.4599,2.4554,2.4578,2.4634,2.4824,2.4832,2.484,2.4874,2.4889,2.4901,0,0,0,0,0,0,2.4027,2.4099,2.4094,2.4216,2.4271,2.4336,2.4396,2.4391,2.4456,2.445,2.447,2.4486,2.459,2.4623,2.4572,2.475,2.4707,2.472,2.4724,2.4739,2.4749,2.4738,2.4539,0,0,0,0,0,2.4048,2.4122,2.4181,2.4283,2.431,2.4348,2.4392,2.4401,2.4459,2.4482,2.4524,2.4579,2.465,2.4697,2.4766,2.4884,2.4896,2.4934,2.4945,2.4954,2.4964,2.5022,2.5038,2.487,2.487,2.487,0,0,2.4093,2.4141,2.4188,2.429,2.4334,2.4408,2.4368,2.445,2.4503,2.4495,2.4594,2.4627,2.469,2.48,2.4851,2.483,2.5013,2.4964,2.497,2.4976,2.5032,2.5048,2.5062,2.4875,2.4874,2.4873,0,0,2.4211,2.4258,2.4344,2.4388,2.4454,2.4478,2.4498,2.4563,2.4584,2.4684,2.4677,2.4741,2.4864,2.4907,2.4945,2.5074,2.5064,2.5096,2.5152,2.5209,2.5222,2.5233,2.5274,2.5289,2.5106,2.5106,2.5106,0,2.4258,2.437,2.4389,2.447,2.4512,2.4507,2.4591,2.4633,2.4719,2.4747,2.4724,2.4873,2.4916,2.5033,2.5063,2.5097,2.5117,2.5087,2.5219,2.5231,2.5242,2.528,2.5296,2.5109,2.5109,2.5109,2.5108,0,2.4422,2.4499,2.4561,2.4641,2.4691,2.4774,2.4802,2.485,2.4854,2.4879,2.4978,2.5028,2.5104,2.5133,2.5139,2.5249,2.5233,2.5214,2.5171,2.526,2.5296,2.5312,2.5113,2.5112,2.5112,2.5111,0,0,2.4566,2.4653,2.4674,2.4708,2.4778,2.4837,2.4917,2.4991,2.5029,2.5087,2.5151,2.5253,2.5233,2.5277,2.5287,2.5337,2.5427,2.5311,2.5312,2.5326,2.5545,2.5556,2.5573,2.5422,2.5425,2.5428,2.5538,0,2.4688,2.483,2.4846,2.4971,2.5039,2.5032,2.5101,2.515,2.5174,2.5234,2.526,2.533,2.5302,2.5327,2.5377,2.5406,2.5471,2.5399,2.5478,2.5481,2.5459,2.5593,2.5606,2.5708,2.5552,2.5555,2.5557,0,2.4849,2.4908,2.504,2.5095,2.5124,2.5186,2.5251,2.531,2.5363,2.5376,2.5422,2.5424,2.5502,2.5456,2.5562,2.5512,2.5545,2.5564,2.5568,2.5574,2.5522,2.5597,2.5742,2.5755,2.558,2.5579,2.5577,0,2.4934,2.5048,2.5139,2.5169,2.5237,2.5279,2.531,2.536,2.54,2.5457,2.5483,2.5548,2.5583,2.5632,2.5649,2.5616,2.5752,2.571,2.5761,2.5761,2.5789,2.5786,2.5935,2.5817,2.5817,2.5816,2.5816,0,2.5065,2.5144,2.5177,2.5234,2.532,2.5337,2.5422,2.545,2.5493,2.5552,2.5551,2.5606,2.5628,2.5685,2.57,2.5781,2.5798,2.5808,2.581,2.5806,2.5804,2.5826,2.5818,2.582,2.5819,2.5819,2.5818,0,2.5174,2.5201,2.5299,2.5354,2.5369,2.543,2.5476,2.5528,2.555,2.5624,2.5642,2.5676,2.5743,2.5766,2.5848,2.5857,2.595,2.5948,2.5931,2.5931,2.598,2.5973,2.6146,2.6167,2.6038,2.6039,2.604,0,2.5255,2.5315,2.5375,2.5414,2.5445,2.5509,2.5549,2.5567,2.5609,2.567,2.5714,2.578,2.5833,2.5939,2.597,2.6031,2.6028,2.6084,2.6037,2.6028,2.6022,2.6017,2.602,2.6092,2.6093,2.6094,2.6095,0,2.5393,2.5401,2.546,2.5522,2.557,2.562,2.5668,2.57,2.5724,2.577,2.5838,2.5879,2.596,2.6024,2.6085,2.6113,2.6106,2.611,2.6124,2.6119,2.6104,2.6107,2.5951,2.6105,2.6104,2.6103,2.6103,2.6103,2.5487,2.5537,2.5586,2.565,2.5687,2.5731,2.5781,2.5808,2.5865,2.5931,2.5938,2.6009,2.6055,2.6136,2.6167,2.622,2.6205,2.6227,2.6232,2.6236,2.6237,2.6098,2.6232,2.6232,2.6232,2.6232,2.6231,0,2.562,2.565,2.5709,2.5774,2.5823,2.5814,2.5865,2.5906,2.5968,2.6012,2.6064,2.6138,2.6198,2.6232,2.6291,2.6327,2.6325,2.6342,2.6338,2.6343,2.625,2.623,2.6342,2.6342,2.6342,2.6342,2.6342,2.6342,2.5695,2.5778,2.5791,2.5891,2.592,2.599,2.6019,2.6057,2.6092,2.6175,2.6224,2.6246,2.6284,2.6345,2.6399,2.6407,2.6426,2.6444,2.645,2.6362,2.635,2.6339,2.632,2.6449,2.6449,2.6537,2.6538,2.6539]}]]